Theta_e
304 304 304 304 304 304 305 305 305 305 305 305 306 306 307 307 309 306 303 307 303 297 298 302 302 297 296 295 290 295 294 295 292 286 287 289 290 292 290 295 292 287 286 285 286 283 279 302 301 293 295 297 298 297
304 305 304 304 304 304 304 304 304 304 305 305 305 306 306 306 307 308 301 307 305 300 298 303 303 304 302 301 296 295 295 295 296 290 290 290 287 290 291 286 298 288 291 287 290 288 299 303 301 304 300 298 298 295
303 304 304 304 304 304 304 304 304 304 305 305 305 306 306 306 306 307 303 303 301 296 296 297 298 304 307 305 305 294 295 299 297 299 293 291 285 289 287 289 293 297 300 290 294 298 300 302 303 304 300 299 297 297
302 302 304 304 304 304 304 304 304 304 305 305 305 305 306 307 307 307 302 304 301 297 291 295 306 303 309 307 305 303 300 302 300 297 293 290 286 293 292 294 293 296 297 295 293 298 300 302 302 302 302 299 298 298
301 302 303 304 304 304 304 304 304 304 304 304 305 305 306 307 307 307 304 304 304 298 291 292 298 302 304 305 303 302 300 297 295 291 291 288 291 293 293 293 291 297 294 289 289 297 297 298 300 304 298 297 297 296
301 301 302 302 303 304 304 304 304 304 304 304 305 306 306 306 306 302 295 303 304 304 294 288 300 301 303 304 301 299 300 297 295 292 291 293 295 294 287 288 295 298 299 300 296 299 298 299 300 299 298 297 297 297
300 301 301 301 302 303 304 304 304 304 304 304 305 305 306 306 305 298 295 301 305 303 295 290 292 299 302 302 300 298 298 296 295 292 291 291 292 295 291 285 296 299 301 300 300 299 296 298 295 298 299 299 300 298
300 300 301 301 301 302 303 304 304 304 304 304 305 305 306 305 303 299 303 305 306 300 298 290 290 295 301 296 293 298 294 294 293 292 293 291 294 295 289 294 299 300 302 299 299 299 298 297 296 297 298 297 296 295
300 300 301 301 302 303 304 304 304 304 304 304 304 305 304 301 297 298 306 304 302 297 291 291 287 287 301 296 294 294 294 287 294 289 291 293 292 288 292 296 298 299 299 297 298 298 297 296 296 296 296 295 294 293
300 300 300 301 302 303 304 304 304 304 304 304 302 297 293 297 307 303 296 292 292 293 292 287 293 289 297 295 292 292 292 289 286 290 293 290 288 295 300 301 301 301 301 298 294 293 294 295 294 294 295 296 294 294
300 300 300 300 301 302 304 304 304 304 304 300 295 292 298 303 297 293 288 287 289 286 290 289 290 289 297 291 290 293 288 289 285 289 289 287 287 295 300 301 302 301 300 298 296 295 295 293 293 295 296 295 294 294
300 300 300 300 300 301 303 304 304 302 300 298 297 299 298 294 290 287 286 289 288 286 291 291 292 293 295 298 292 292 288 288 283 295 289 285 294 299 299 300 300 299 297 297 296 295 294 296 296 296 295 293 292 293
299 299 300 300 301 302 303 304 304 303 302 299 294 290 289 288 284 283 282 286 287 292 295 294 291 294 294 295 291 290 286 285 295 288 287 292 297 298 299 299 298 297 297 296 295 295 295 298 298 295 293 293 292 292
299 299 300 300 301 303 303 303 304 302 298 291 287 284 285 284 286 289 291 290 293 296 294 293 291 290 292 288 289 285 288 291 287 285 287 294 296 297 299 300 297 295 296 294 294 294 296 294 293 293 293 293 292 292
299 300 300 300 301 302 303 303 304 301 295 288 289 285 287 293 297 297 297 295 296 297 294 291 290 291 288 287 288 287 285 284 287 288 292 296 297 298 298 297 296 296 294 293 293 293 293 293 292 292 293 292 292 293
299 299 300 301 302 303 303 303 301 298 294 291 290 289 295 294 294 296 296 294 297 295 294 293 289 287 286 287 286 286 287 286 288 292 296 297 297 298 297 297 296 296 295 293 293 293 293 294 293 293 293 293 292 292
299 296 301 302 303 303 302 298 296 292 290 288 287 294 293 295 294 297 297 296 299 294 289 290 287 286 292 287 288 292 288 292 295 297 297 298 297 296 296 296 297 297 295 294 293 293 293 294 293 293 291 291 291 292
295 299 301 302 302 300 298 297 293 290 288 290 289 295 298 299 298 297 299 297 296 293 291 289 293 289 288 287 286 294 296 298 299 297 297 299 298 297 297 295 297 296 295 294 294 294 293 292 290 289 289 291 290 289
298 299 300 302 301 296 293 293 293 288 290 294 296 297 299 299 301 301 299 299 298 297 294 292 289 290 290 295 295 297 297 297 296 296 298 299 299 298 297 297 297 296 296 295 294 291 291 292 290 289 289 289 288 288
300 300 301 302 301 294 291 291 296 291 291 296 299 298 298 299 300 300 298 297 295 293 290 290 292 295 296 299 300 300 300 298 297 294 294 296 298 297 296 295 294 295 294 294 293 290 293 291 291 290 289 288 288 287
299 300 301 301 298 296 293 293 292 293 293 293 297 297 296 298 297 296 295 297 292 291 290 295 296 300 302 302 303 302 301 299 296 295 294 294 296 296 296 296 297 296 294 293 290 289 290 289 289 290 290 289 289 288
299 301 298 298 294 294 292 296 294 296 294 295 295 296 293 293 294 295 296 293 291 292 295 298 298 299 301 301 302 303 302 300 298 297 295 295 295 294 294 294 294 292 292 292 292 291 290 289 288 290 290 289 289 289
300 299 297 295 291 289 289 299 292 293 289 292 295 293 293 295 297 299 293 295 295 299 300 300 301 302 300 302 302 300 300 298 296 296 296 297 296 296 295 295 295 293 291 292 293 292 290 288 289 290 290 289 288 288
300 294 291 291 290 288 294 292 294 292 292 290 291 290 293 294 298 294 290 292 294 298 299 300 301 300 300 300 296 297 298 298 297 297 297 295 295 295 295 294 295 295 294 293 293 292 292 291 291 290 289 288 287 287
289 289 290 286 293 290 288 288 289 289 287 291 289 291 292 296 289 289 287 289 291 295 297 300 300 300 298 297 297 298 299 297 296 295 297 297 296 295 294 294 294 294 296 294 292 292 291 292 291 290 289 288 286 286
285 290 287 289 289 288 289 288 288 289 290 289 291 294 295 291 287 285 287 288 289 294 294 296 298 298 299 300 298 297 298 300 299 296 297 296 297 295 293 292 291 292 295 294 293 292 291 291 290 289 288 288 285 285
284 287 292 296 294 293 291 293 294 293 290 289 291 291 290 286 285 286 289 290 290 293 294 295 300 300 299 300 300 301 302 301 298 296 296 295 293 292 293 293 290 291 294 292 291 290 289 288 287 287 286 286 284 283
291 293 289 292 292 294 290 291 290 289 289 291 292 288 286 285 284 286 289 292 292 294 295 298 303 303 301 300 300 301 299 298 297 296 294 293 293 291 291 290 289 286 290 290 289 288 288 286 285 285 284 282 281 283
291 294 294 291 292 292 290 289 288 289 289 291 288 287 286 286 288 288 290 290 293 296 297 296 297 298 298 299 299 300 299 297 294 291 290 288 289 290 292 292 293 292 290 286 283 285 286 285 284 283 283 281 281 281
291 295 292 291 289 288 288 291 289 290 290 292 291 289 287 287 289 291 291 293 293 294 296 297 296 296 295 295 294 295 297 297 298 295 291 289 290 293 293 293 292 291 291 289 286 284 282 284 282 282 281 280 279 278
296 296 292 291 287 288 290 291 292 291 291 291 292 289 286 287 290 292 290 291 294 295 295 294 295 296 295 294 292 291 291 295 295 295 294 294 293 292 291 291 289 287 286 284 283 282 282 281 280 279 278 277 277 277
294 292 290 286 284 289 291 290 290 289 289 289 288 289 288 288 285 289 290 291 293 292 290 293 293 294 296 293 290 288 286 285 284 291 293 292 292 291 289 288 287 287 284 282 281 280 280 279 277 277 276 275 275 275
290 291 290 288 286 286 289 289 289 288 289 288 288 289 289 288 284 289 293 294 294 294 295 295 293 291 290 289 287 285 283 282 281 280 281 281 281 283 286 287 287 286 284 282 281 279 278 277 275 274 272 271 271 271
Wind_Speed
17 16 17 16 16 15 14 13 12 12 11 11 13 12 12 12 15 3 3 5 2 2 8 5 5 3 2 3 2 3 2 2 1 1 1 3 4 4 2 3 5 7 6 4 6 4 6 9 5 1 5 1 6 5
18 17 15 15 15 14 13 13 14 13 13 12 12 12 12 12 13 6 2 2 2 2 5 3 9 10 8 5 4 2 0 3 1 3 0 3 3 4 3 2 3 3 5 4 3 4 1 4 6 5 3 5 5 5
19 19 16 15 15 14 13 13 13 13 14 13 13 14 13 13 12 8 2 2 2 2 6 3 6 9 11 10 7 4 2 3 4 3 2 1 4 3 2 3 1 4 2 1 2 2 2 6 6 7 3 7 6 6
18 18 18 16 15 14 13 13 13 12 14 13 12 13 13 13 11 10 3 3 1 1 2 4 5 3 5 7 8 5 7 4 4 2 1 2 3 4 3 4 3 5 5 6 5 3 4 1 4 3 4 7 8 8
18 17 18 17 15 14 14 13 13 13 13 13 13 13 13 13 9 7 1 3 1 1 1 5 11 10 7 6 9 9 8 5 2 2 2 3 4 3 4 5 6 1 2 1 2 4 4 7 5 2 6 7 7 7
17 17 17 17 17 15 13 13 12 12 12 13 12 12 12 9 3 1 2 3 4 2 1 3 5 2 5 10 8 7 7 3 3 2 3 4 9 1 3 3 3 6 5 6 2 3 4 2 6 5 7 8 7 9
18 17 17 17 17 16 16 13 12 12 11 11 10 10 11 4 1 1 1 1 9 2 2 3 2 3 11 6 3 3 2 2 2 1 3 4 4 2 3 4 7 3 5 5 3 2 4 4 2 5 8 8 10 8
19 17 16 16 16 16 17 16 11 10 11 9 9 10 8 2 4 2 2 8 1 1 2 3 4 3 7 3 3 2 2 2 3 1 3 4 3 3 5 8 6 9 4 6 4 2 3 2 5 8 9 8 9 8
18 17 16 15 14 15 16 16 9 9 9 7 7 10 2 3 2 2 11 9 2 2 2 2 3 2 4 3 3 2 2 3 2 4 4 3 3 6 7 3 6 5 4 4 3 4 6 8 7 8 9 9 8 7
17 17 16 15 15 14 16 11 7 8 7 4 3 2 2 1 16 9 4 1 0 1 1 3 5 2 5 4 4 3 3 3 3 5 3 4 5 8 2 6 5 4 3 6 6 7 7 6 6 8 9 8 7 5
15 16 15 16 16 15 17 8 5 6 5 1 1 0 1 3 2 1 2 2 3 3 4 4 5 5 3 2 2 1 2 1 3 3 3 3 4 5 10 9 6 4 7 7 5 5 7 5 5 8 10 9 6 6
15 15 16 16 16 15 15 8 4 3 1 3 3 1 1 1 1 1 3 3 5 4 7 3 4 3 2 2 2 2 2 2 4 3 2 4 2 9 9 9 7 7 7 6 6 8 5 6 8 10 9 6 5 6
14 15 15 16 14 16 11 3 3 9 6 2 2 1 1 2 4 5 6 4 4 3 4 4 2 3 2 2 2 2 3 5 3 3 4 2 2 6 8 7 9 7 6 7 6 8 4 12 11 9 6 5 6 5
14 16 16 15 14 14 7 4 6 7 1 1 2 4 4 4 6 6 1 1 2 4 5 5 3 1 2 1 2 3 4 3 4 4 2 3 7 7 5 7 8 7 8 7 7 6 10 11 9 7 7 5 5 5
16 16 17 16 15 10 6 6 14 1 1 2 2 4 7 7 3 5 7 5 3 4 4 3 3 1 2 2 3 2 4 6 5 1 3 4 8 6 4 9 7 7 7 7 7 6 8 8 6 6 6 6 5 5
15 17 4 9 9 8 8 6 4 1 1 3 5 5 4 3 2 2 7 7 4 3 2 1 3 3 4 3 5 6 4 1 2 3 5 5 6 5 7 7 7 8 7 7 7 6 6 6 6 5 6 5 5 5
12 3 11 11 3 8 9 2 2 4 3 3 5 6 6 5 3 2 5 2 4 4 2 2 3 5 4 3 4 3 2 3 7 4 5 5 7 7 7 7 7 7 6 6 6 6 6 6 7 6 6 4 6 6
3 4 11 8 3 3 1 1 1 2 5 5 5 2 2 2 2 3 4 4 2 3 3 2 3 3 3 1 3 2 3 4 5 6 4 6 7 7 6 7 7 6 6 6 6 5 5 7 6 4 6 4 6 6
6 8 12 3 2 2 2 3 1 3 6 6 7 5 3 2 1 6 5 4 3 2 0 2 4 3 2 2 1 6 2 5 8 6 5 6 6 7 7 7 6 5 5 4 5 4 3 5 5 4 3 5 4 4
12 11 9 7 2 1 2 2 2 4 4 3 3 2 3 1 6 6 6 5 3 2 1 3 3 2 3 3 3 3 3 8 8 7 4 5 5 7 6 6 5 5 4 4 3 2 2 4 4 4 3 4 4 3
3 3 3 0 1 1 2 2 4 3 4 4 2 4 2 2 4 4 3 2 2 1 2 4 3 6 4 3 2 4 3 7 7 6 7 5 4 4 4 4 5 3 4 4 4 5 7 5 4 3 5 4 4 4
1 3 1 1 2 3 2 3 3 3 3 3 4 2 3 1 3 4 5 2 2 3 3 2 1 5 7 1 7 4 6 8 7 6 7 6 5 4 4 3 4 6 5 5 6 6 5 3 4 3 5 5 6 4
4 0 1 3 2 2 5 2 2 2 3 3 4 3 3 2 3 6 2 2 0 3 4 2 2 4 8 3 7 8 8 7 5 4 4 3 4 5 5 6 5 6 5 4 5 5 4 2 2 5 5 6 5 5
1 2 2 3 5 3 3 3 2 2 3 4 3 3 4 2 1 1 2 2 2 4 2 2 2 2 2 4 4 4 4 5 4 3 6 6 5 5 7 7 7 5 5 4 5 5 5 5 6 5 5 6 5 4
2 3 3 3 4 3 3 3 4 3 4 3 3 2 1 2 2 2 1 2 4 3 4 4 2 4 3 3 3 5 5 4 2 4 4 6 5 6 8 7 6 5 4 5 5 5 5 5 5 5 6 5 5 6
3 5 4 4 3 4 4 4 5 6 2 3 1 3 2 1 2 2 1 2 3 3 5 5 2 3 3 4 3 4 4 4 4 3 5 6 3 6 8 8 6 4 5 5 6 7 7 6 7 8 6 8 7 8
3 4 4 4 3 4 4 4 3 2 3 2 2 2 1 2 2 2 1 1 3 4 7 5 4 2 3 1 3 4 7 6 10 10 9 10 9 10 9 9 9 6 9 11 10 9 8 7 7 6 6 6 8 8
4 3 5 4 3 3 3 2 2 5 4 4 2 3 2 3 2 1 1 3 5 7 7 5 3 4 3 4 5 5 8 10 10 11 10 11 9 8 9 8 8 15 8 8 8 6 6 6 6 6 7 8 8 7
3 3 1 3 3 4 5 4 3 2 3 2 2 3 3 3 1 3 3 4 6 7 5 4 4 4 6 7 8 8 4 4 9 12 13 8 7 4 4 5 6 7 6 6 8 6 7 6 6 6 8 8 7 6
3 3 2 0 3 2 2 3 2 1 1 1 3 4 3 2 1 3 3 2 3 5 6 6 2 5 7 8 8 10 9 8 7 8 8 7 5 5 7 8 8 7 6 6 5 4 6 6 8 8 9 8 7 6
3 3 3 3 3 2 2 2 2 1 2 2 4 4 4 3 1 1 3 4 1 2 4 6 8 8 8 6 6 7 7 7 10 12 10 8 8 8 8 8 8 8 9 10 9 8 8 9 8 8 8 9 10 8
1 3 3 4 2 3 3 2 2 2 1 1 2 2 3 3 2 1 2 2 1 3 3 5 5 4 4 7 9 9 10 7 8 6 9 6 4 7 8 7 8 9 10 10 9 8 9 9 7 8 8 10 9 9
2 2 3 4 2 3 4 3 3 4 3 3 3 3 1 2 3 1 2 3 2 4 5 5 8 10 12 12 11 9 10 9 11 12 14 15 15 12 8 7 7 9 12 10 8 8 9 9 8 8 7 7 6 7
Wind_Direction
313 312 310 313 311 313 314 312 320 319 319 320 320 320 317 323 318 175 281 299 311 291 294 334 19 345 4 127 204 17 319 343 80 157 235 285 312 349 280 139 166 175 170 186 201 217 239 8 173 175 167 222 75 48
319 312 309 311 308 306 305 312 316 316 313 316 313 320 326 318 313 262 240 48 343 241 283 355 274 251 258 244 148 158 185 351 55 87 193 305 306 314 6 290 33 244 194 180 169 216 315 329 27 328 104 96 57 47
319 322 313 308 307 305 301 302 299 307 307 306 313 317 321 316 305 312 256 136 72 12 286 233 258 247 221 223 160 142 207 30 69 337 121 273 273 308 290 276 85 292 107 108 49 291 354 31 24 311 62 77 53 43
318 316 319 306 308 310 307 304 302 300 298 294 291 299 308 311 310 308 198 166 140 111 286 298 55 36 117 114 150 139 126 78 103 46 64 265 246 258 300 277 235 223 174 182 216 199 101 206 174 237 13 58 57 43
316 314 318 314 306 304 305 307 304 300 297 296 294 298 311 316 315 306 166 195 31 173 312 295 316 250 216 155 165 114 124 122 121 107 225 242 241 261 264 260 260 89 332 146 190 102 117 206 244 113 60 69 64 43
313 314 317 316 322 312 298 299 305 301 297 293 292 296 301 323 333 172 251 181 178 180 118 285 332 127 118 157 118 113 114 86 113 166 220 242 251 253 270 275 85 85 52 40 147 147 184 264 110 74 91 80 60 71
310 311 311 309 311 316 319 296 292 300 296 295 293 299 306 274 260 231 265 306 153 146 201 269 247 116 104 93 75 72 104 107 119 189 225 262 298 69 268 245 281 213 146 161 194 252 63 69 60 79 88 77 74 65
312 310 308 306 302 305 309 309 286 288 300 295 298 312 303 188 130 195 349 114 126 302 279 265 271 149 154 147 120 114 121 140 177 228 231 244 255 163 245 255 62 29 49 80 62 34 249 153 76 77 80 69 63 60
309 311 311 313 302 298 307 305 285 280 287 293 312 311 172 225 174 121 99 70 65 22 262 221 252 199 125 83 90 148 176 198 175 218 245 209 227 220 234 250 122 156 220 154 207 264 62 59 66 68 75 69 66 60
309 311 316 315 316 315 315 302 280 275 288 308 286 232 200 285 125 111 43 43 214 204 262 259 300 269 159 152 154 164 179 222 219 213 231 229 250 249 176 151 153 126 234 61 43 47 51 44 45 74 78 77 72 69
304 307 314 316 313 312 315 307 277 273 260 221 172 78 284 61 76 28 136 203 155 224 195 223 235 257 16 169 115 217 169 268 242 179 226 236 257 228 169 138 175 118 87 99 83 71 73 42 63 78 74 69 54 66
308 312 310 310 309 309 309 297 263 218 31 101 113 49 46 60 98 223 192 206 200 244 170 209 185 196 68 79 115 163 247 201 250 141 240 246 185 128 129 120 117 92 86 89 61 83 59 75 77 83 80 79 51 58
309 310 310 311 308 308 302 262 228 133 119 74 66 129 194 160 220 224 191 189 199 169 161 174 105 34 102 80 104 176 240 237 191 186 226 174 149 102 108 115 97 100 83 81 66 82 44 90 78 84 91 79 73 64
311 311 309 308 304 302 256 267 186 157 118 168 176 190 226 190 233 214 128 100 10 102 96 96 97 92 66 157 143 237 234 269 247 224 202 144 139 112 104 120 106 91 110 97 86 71 82 82 79 75 80 66 41 71
317 311 302 299 282 256 238 237 173 191 118 222 225 241 225 241 324 87 122 128 95 92 109 107 105 143 142 216 205 239 240 224 229 104 102 123 114 121 126 102 115 119 89 80 80 77 98 104 103 111 100 81 50 33
323 309 272 277 267 271 209 200 158 113 259 244 230 268 299 301 267 118 96 116 119 107 114 173 135 178 197 207 209 213 242 206 85 91 121 142 115 104 93 93 91 93 92 97 99 87 67 82 110 98 120 111 75 54
314 241 336 323 313 103 111 95 103 193 251 242 241 238 263 262 260 84 99 129 121 151 151 159 210 217 194 215 219 219 218 126 122 149 118 114 106 97 89 87 91 97 102 102 108 116 107 91 57 54 53 83 69 36
243 288 326 313 121 77 53 56 201 203 250 243 250 289 321 353 20 112 109 128 135 156 176 225 272 241 277 246 310 141 97 139 135 117 114 109 106 110 112 107 102 101 103 98 93 76 79 94 75 58 35 47 74 49
293 301 305 238 123 122 191 151 219 258 245 250 236 229 188 228 40 133 116 122 88 101 234 245 259 260 268 359 294 114 120 118 114 106 102 106 115 112 110 100 100 101 93 101 140 129 141 127 118 88 61 24 91 65
292 283 285 178 242 215 219 168 244 270 279 294 306 282 212 206 167 151 136 128 115 151 218 239 260 191 271 116 153 162 199 119 119 118 112 94 95 100 123 129 129 156 136 135 108 55 120 59 67 93 76 51 86 66
237 135 101 326 114 295 289 262 235 252 294 297 306 268 252 161 139 131 113 106 120 199 247 238 12 309 274 217 117 86 206 135 138 137 129 129 150 150 118 152 163 191 170 165 112 81 64 45 359 37 59 33 56 56
101 176 153 101 256 192 258 251 264 304 266 282 283 278 281 243 179 129 128 141 202 225 248 345 100 304 326 213 144 145 105 105 117 124 132 147 143 158 173 190 117 79 63 70 91 93 90 74 351 40 64 45 28 25
171 297 204 181 250 227 262 238 198 241 276 299 312 242 214 142 100 151 152 122 115 24 327 12 137 330 288 346 92 90 105 110 116 121 145 129 96 91 82 73 80 95 85 55 79 104 101 62 49 47 70 62 33 357
166 195 232 219 202 250 237 197 209 227 268 254 242 273 71 36 81 174 84 57 335 305 319 349 14 324 356 322 92 105 103 95 97 97 108 98 84 75 90 90 82 77 86 85 82 75 74 76 55 35 58 60 35 2
194 218 220 249 245 222 223 210 209 200 251 242 275 128 105 171 170 82 75 3 334 352 360 328 347 162 254 91 91 88 103 109 121 106 113 119 116 105 97 92 78 56 61 90 74 81 76 64 65 45 53 49 23 20
232 210 179 215 218 224 218 235 209 215 194 249 232 125 152 173 87 93 63 338 315 342 5 356 27 44 77 339 72 79 39 36 83 106 67 53 86 133 132 125 108 58 63 61 63 60 52 49 46 41 28 16 28 46
243 243 216 229 229 264 267 262 204 161 210 267 91 142 181 132 103 80 3 357 301 319 323 329 288 107 147 108 24 59 75 55 61 79 78 72 64 55 65 91 79 64 67 68 60 54 46 44 34 29 30 23 52 31
262 267 203 229 221 249 270 254 29 17 17 352 352 32 55 29 75 10 323 328 311 304 299 289 144 206 210 155 99 102 94 103 101 96 87 78 74 74 78 86 83 75 67 77 75 60 49 56 41 39 28 58 39 15
251 296 241 220 187 56 27 30 49 43 332 328 17 48 78 64 35 347 342 314 304 299 317 68 66 75 78 67 43 38 45 131 138 116 106 110 112 118 140 144 126 111 100 86 63 66 61 73 61 37 52 63 35 20
220 174 241 160 71 92 65 358 81 54 300 333 119 120 100 83 334 294 331 358 354 0 3 353 12 84 86 83 73 58 38 32 35 112 114 100 84 71 69 71 67 69 75 79 85 66 64 83 55 49 49 48 36 24
179 154 111 91 88 90 102 118 122 106 319 22 33 86 108 142 206 84 26 348 332 14 33 49 53 50 65 65 80 85 74 46 54 62 77 83 77 75 72 68 67 65 66 61 54 43 61 60 53 53 46 44 38 32
194 205 143 128 144 143 162 229 192 150 209 169 133 128 163 170 99 84 331 326 112 107 85 87 99 126 137 90 73 71 65 57 27 37 69 73 88 85 93 97 96 90 87 78 63 57 58 64 63 53 48 42 34 27
60 85 104 115 135 183 206 207 209 176 178 158 152 165 131 101 121 116 292 299 241 163 165 144 90 83 92 94 95 88 77 76 68 61 63 61 56 49 48 56 64 86 102 103 95 85 72 71 68 68 57 46 37 27